Tracking 29892 objects as of 21-Nov-2024
HD Live streaming from Space Station
objects crossing your sky now

STARLINK-2198

Track STARLINK-2198 now!
10-day predictions
STARLINK-2198 is classified as:


NORAD ID: 47775
Int'l Code: 2021-017BF
Perigee: 438.1 km
Apogee: 439.4 km
Inclination: 53.0 °
Period: 93.2 minutes
Semi major axis: 6809 km
RCS: Unknown
Launch date: March 4, 2021
Source: United States (US)
Launch site: AIR FORCE EASTERN TEST RANGE (AFETR)
Your satellite tracking list
Your tracking list is empty




NASA's NSSDC Master Catalog

Two Line Element Set (TLE):
1 47775U 21017BF  24326.16667824  .00696164  00000-0  13492-1 0  9990
2 47775  53.0477 180.3937 0001000  91.7256 185.3025 15.44926784205696
Source of the keplerian elements: AFSPC